CW4957 Weather Reports


Display with metric or nautical units.
time (UTC)temp
F
wind
direction
speed
MPH
gust
MPH
rain 1hr
in
rain 24hr
in
rain mn
in
humidity
%
barometer
mb
20260905190302 77 32 0.0 2.0 0.00 0.00 0.00 56 1009.0
20260905185804 77 32 1.0 2.0 0.00 0.00 0.00 59 1009.0
20260905185247 76 32 0.0 1.0 0.00 0.00 0.00 59 1008.9
20260905184819 76 33 0.0 1.0 0.00 0.00 0.00 64 1008.9
20260905184321 76 33 0.0 2.0 0.00 0.00 0.00 61 1008.9
20260905183826 75 33 0.0 1.0 0.00 0.00 0.00 61 1009.1
20260905183250 75 33 0.0 0.0 0.00 0.00 0.00 62 1009.1
20260905182758 75 33 0.0 0.0 0.00 0.00 0.00 62 1009.1
20260905182308 75 33 0.0 0.0 0.00 0.00 0.00 63 1009.2
20260905181756 75 33 0.0 0.0 0.00 0.00 0.00 62 1009.2
20260905181302 76 33 0.0 0.0 0.00 0.00 0.00 60 1009.2
20260905180828 76 33 0.0 0.0 0.00 0.00 0.00 59 1009.1
20260905180253 76 33 0.0 2.0 0.00 0.00 0.00 59 1009.1
20260905175801 76 33 0.0 2.0 0.00 0.00 0.00 57 1009.1
20260905175306 77 33 0.0 2.0 0.00 0.00 0.00 56 1009.0
20260905174747 77 32 1.0 2.0 0.00 0.00 0.00 55 1009.0
20260905174301 78 32 0.0 1.0 0.00 0.00 0.00 56 1009.0
20260905173811 78 32 0.0 1.0 0.00 0.00 0.00 56 1009.0
20260905173251 78 32 0.0 3.0 0.00 0.00 0.00 57 1009.0
20260905172753 77 32 1.0 3.0 0.00 0.00 0.00 57 1009.0
20260905172305 77 98 0.0 0.0 0.00 0.00 0.00 57 1009.1
20260905171751 77 98 0.0 0.0 0.00 0.00 0.00 58 1009.1
20260905171317 77 99 0.0 1.0 0.00 0.00 0.00 58 1009.1
20260905170749 77 98 0.0 2.0 0.00 0.00 0.00 56 1008.9
20260905170253 77 30 0.0 1.0 0.00 0.00 0.00 58 1008.9
20260905165804 77 59 0.0 1.0 0.00 0.00 0.00 59 1008.9
20260905165250 76 58 0.0 3.0 0.00 0.00 0.00 60 1009.1
20260905164759 75 39 0.0 4.0 0.00 0.00 0.00 60 1009.1
20260905164305 75 31 2.0 5.0 0.00 0.00 0.00 59 1009.1
20260905163753 75 42 2.0 5.0 0.00 0.00 0.00 59 1009.3
20260905163259 74 74 0.0 2.0 0.00 0.00 0.00 63 1009.3
20260905162756 74 73 1.0 4.0 0.00 0.00 0.00 64 1009.3
20260905162305 74 39 1.0 4.0 0.00 0.00 0.00 64 1009.4
20260905161747 74 360 0.0 1.0 0.00 0.00 0.00 66 1009.4
20260905161319 74 360 0.0 0.0 0.00 0.00 0.00 63 1009.4
20260905160808 74 360 0.0 1.0 0.00 0.00 0.00 62 1009.4
20260905160257 75 360 0.0 3.0 0.00 0.00 0.00 63 1009.4
20260905155801 75 43 0.0 2.0 0.00 0.00 0.00 64 1009.4
20260905155308 75 30 0.0 3.0 0.00 0.00 0.00 64 1009.6
20260905154814 74 26 1.0 3.0 0.00 0.00 0.00 64 1009.6
20260905154300 74 30 1.0 3.0 0.00 0.00 0.00 64 1009.6
20260905153806 74 96 0.0 1.0 0.00 0.00 0.00 67 1009.5
20260905153308 74 355 0.0 3.0 0.00 0.00 0.00 66 1009.5
20260905152754 74 355 0.0 5.0 0.00 0.00 0.00 69 1009.5
20260905152259 73 5 0.0 5.0 0.00 0.00 0.00 68 1009.6
20260905151803 73 5 1.0 3.0 0.00 0.00 0.00 69 1009.6
20260905151251 72 17 0.0 3.0 0.00 0.00 0.00 70 1009.6
20260905150750 71 5 1.0 3.0 0.00 0.00 0.00 72 1009.6
20260905150313 71 38 0.0 2.0 0.00 0.00 0.00 71 1009.6
20260905145800 71 40 0.0 5.0 0.00 0.00 0.00 70 1009.6
20260905145307 71 40 1.0 5.0 0.00 0.00 0.00 69 1009.7
20260905144750 71 355 0.0 4.0 0.00 0.00 0.00 70 1009.7
20260905144256 71 40 1.0 4.0 0.00 0.00 0.00 70 1009.7
20260905143804 71 11 1.0 3.0 0.00 0.00 0.00 70 1009.7
20260905143253 71 35 0.0 3.0 0.00 0.00 0.00 71 1009.7
20260905142755 71 323 0.0 4.0 0.00 0.00 0.00 73 1009.7
20260905142306 71 51 1.0 4.0 0.00 0.00 0.00 73 1009.9
20260905141752 70 38 0.0 3.0 0.00 0.00 0.00 76 1009.9
20260905141300 70 38 0.0 3.0 0.00 0.00 0.00 76 1009.9
20260905140807 69 40 1.0 3.0 0.00 0.00 0.00 78 1009.9
20260905140253 68 40 0.0 4.0 0.00 0.00 0.00 81 1009.9
20260905135800 68 40 1.0 4.0 0.00 0.00 0.00 83 1009.9
20260905135320 67 302 2.0 3.0 0.00 0.00 0.00 87 1009.9
20260905134805 66 32 0.0 2.0 0.00 0.00 0.00 91 1009.9
20260905134314 65 360 0.0 2.0 0.00 0.00 0.00 93 1009.9
20260905133756 65 153 0.0 0.0 0.00 0.00 0.00 93 1009.9
20260905133303 64 153 0.0 0.0 0.00 0.00 0.00 94 1009.9
20260905132753 64 153 0.0 0.0 0.00 0.00 0.00 94 1009.9
20260905132258 64 153 0.0 0.0 0.00 0.00 0.00 95 1010.0
20260905131800 63 153 0.0 1.0 0.00 0.00 0.00 95 1010.0
20260905131309 63 153 0.0 1.0 0.00 0.00 0.00 95 1010.0
20260905130751 63 153 0.0 0.0 0.00 0.00 0.00 95 1010.0
20260905130257 63 153 0.0 0.0 0.00 0.00 0.00 95 1010.0
20260905125803 63 153 0.0 0.0 0.00 0.00 0.00 96 1010.0
20260905125254 63 153 0.0 1.0 0.00 0.00 0.00 96 1009.9
20260905124802 62 153 0.0 1.0 0.00 0.00 0.00 96 1009.9
20260905124305 62 153 0.0 0.0 0.00 0.00 0.00 96 1009.9
20260905123750 62 153 0.0 0.0 0.00 0.00 0.00 96 1009.9
20260905123259 62 153 0.0 1.0 0.00 0.00 0.00 97 1009.9
20260905122801 61 153 0.0 1.0 0.00 0.00 0.00 96 1009.9
20260905122307 60 153 0.0 0.0 0.00 0.00 0.00 96 1009.8
20260905121749 60 153 0.0 0.0 0.00 0.00 0.00 96 1009.8
20260905121254 59 153 0.0 0.0 0.00 0.00 0.00 96 1009.8
20260905120758 59 153 0.0 0.0 0.00 0.00 0.00 95 1009.5
20260905120247 58 153 0.0 0.0 0.00 0.00 0.00 95 1009.5
20260905115755 58 153 0.0 0.0 0.00 0.00 0.00 94 1009.5
20260905115305 58 153 0.0 0.0 0.00 0.00 0.00 94 1009.4
20260905114828 58 153 0.0 0.0 0.00 0.00 0.00 94 1009.4
20260905114318 58 153 0.0 0.0 0.00 0.00 0.00 94 1009.4
20260905113805 58 153 0.0 0.0 0.00 0.00 0.00 94 1009.4
20260905113253 58 153 0.0 0.0 0.00 0.00 0.00 94 1009.4
20260905112804 58 153 0.0 0.0 0.00 0.00 0.00 94 1009.4
20260905112254 58 153 0.0 0.0 0.00 0.00 0.00 94 1009.3
20260905111801 58 153 0.0 0.0 0.00 0.00 0.00 93 1009.3
20260905111305 58 153 0.0 0.0 0.00 0.00 0.00 93 1009.3
20260905110800 58 153 0.0 0.0 0.00 0.00 0.00 93 1009.1
20260905110304 58 153 0.0 0.0 0.00 0.00 0.00 93 1009.1
20260905105749 58 153 0.0 0.0 0.00 0.00 0.00 93 1009.1
20260905105305 58 153 0.0 0.0 0.00 0.00 0.00 93 1009.0
20260905104807 58 153 0.0 0.0 0.00 0.00 0.00 93 1009.0
20260905104251 58 153 0.0 0.0 0.00 0.00 0.00 93 1009.0
20260905103757 58 153 0.0 0.0 0.00 0.00 0.00 93 1008.9
20260905103326 58 153 0.0 0.0 0.00 0.00 0.00 92 1008.9
20260905102750 58 153 0.0 0.0 0.00 0.00 0.00 92 1008.9
20260905102254 58 153 0.0 0.0 0.00 0.00 0.00 92 1008.9
20260905101807 58 153 0.0 0.0 0.00 0.00 0.00 92 1008.9
20260905101311 58 153 0.0 0.0 0.00 0.00 0.00 92 1008.9
20260905100814 58 153 0.0 0.0 0.00 0.00 0.00 92 1008.9
20260905100300 58 153 0.0 0.0 0.00 0.00 0.00 92 1008.9
20260905095825 58 153 0.0 0.0 0.00 0.00 0.00 92 1008.9
20260905095329 58 153 0.0 0.0 0.00 0.00 0.00 92 1008.8
20260905094813 58 153 0.0 0.0 0.00 0.00 0.00 92 1008.8
20260905094301 59 153 0.0 0.0 0.00 0.00 0.00 92 1008.8
20260905093747 59 153 0.0 0.0 0.00 0.00 0.00 91 1008.7
20260905093258 59 153 0.0 0.0 0.00 0.00 0.00 91 1008.7
20260905092749 59 153 0.0 0.0 0.00 0.00 0.00 91 1008.7
20260905092313 59 153 0.0 0.0 0.00 0.00 0.00 91 1008.6
20260905091802 59 153 0.0 0.0 0.00 0.00 0.00 91 1008.6
20260905091307 59 153 0.0 0.0 0.00 0.00 0.00 91 1008.6
20260905090754 59 153 0.0 0.0 0.00 0.00 0.00 91 1008.5
20260905090319 59 153 0.0 0.0 0.00 0.00 0.00 91 1008.5
20260905085805 59 153 0.0 0.0 0.00 0.00 0.00 91 1008.5
20260905085249 59 153 0.0 0.0 0.00 0.00 0.00 91 1008.4
20260905084813 59 153 0.0 0.0 0.00 0.00 0.00 91 1008.4
20260905084302 60 153 0.0 0.0 0.00 0.00 0.00 91 1008.4
20260905083749 60 153 0.0 0.0 0.00 0.00 0.00 91 1008.4
20260905083258 60 153 0.0 0.0 0.00 0.00 0.00 91 1008.4
20260905082801 60 153 0.0 0.0 0.00 0.00 0.00 91 1008.4
20260905082308 60 153 0.0 0.0 0.00 0.00 0.00 90 1008.4
20260905081751 60 153 0.0 0.0 0.00 0.00 0.00 91 1008.4
20260905081258 60 153 0.0 0.0 0.00 0.00 0.00 90 1008.4
20260905080802 60 153 0.0 0.0 0.00 0.00 0.00 90 1008.5
20260905080308 60 153 0.0 0.0 0.00 0.00 0.00 90 1008.5
20260905075756 60 153 0.0 0.0 0.00 0.00 0.00 90 1008.5
20260905075306 60 153 0.0 0.0 0.00 0.00 0.00 90 1008.7
20260905074752 60 153 0.0 0.0 0.00 0.00 0.00 90 1008.7
20260905074259 60 153 0.0 0.0 0.00 0.00 0.00 90 1008.7
20260905073758 61 153 0.0 0.0 0.00 0.00 0.00 90 1008.8
20260905073321 61 153 0.0 0.0 0.00 0.00 0.00 90 1008.8
20260905072805 61 153 0.0 0.0 0.00 0.00 0.00 90 1008.8
20260905072258 61 153 0.0 0.0 0.00 0.00 0.00 90 1008.9
20260905071808 61 153 0.0 0.0 0.00 0.00 0.00 90 1008.9
20260905071251 61 153 0.0 0.0 0.00 0.00 0.00 89 1008.9
20260905070755 61 153 0.0 0.0 0.00 0.00 0.00 89 1008.9
20260905070322 61 153 0.0 0.0 0.00 0.00 0.00 89 1008.9
20260905065827 61 153 0.0 0.0 0.00 0.00 0.00 89 1008.9
20260905065250 61 153 0.0 0.0 0.00 0.00 0.00 89 1008.9
20260905064754 61 153 0.0 0.0 0.00 0.00 0.00 89 1008.9
20260905064307 62 153 0.0 0.0 0.00 0.00 0.00 89 1008.9
20260905063756 62 153 0.0 0.0 0.00 0.00 0.00 89 1008.8
20260905063302 62 153 0.0 0.0 0.00 0.00 0.00 88 1008.8
20260905062804 62 153 0.0 0.0 0.00 0.00 0.00 88 1008.8
20260905062252 62 153 0.0 0.0 0.00 0.00 0.00 88 1008.9
20260905061821 62 153 0.0 0.0 0.00 0.00 0.00 88 1008.9
20260905061306 62 153 0.0 0.0 0.00 0.00 0.00 88 1008.9
20260905060816 62 153 0.0 0.0 0.00 0.00 0.00 88 1009.1
20260905060259 62 153 0.0 0.0 0.00 0.00 0.00 88 1009.1
20260905055824 63 153 0.0 0.0 0.00 0.00 0.00 88 1009.1
20260905055329 63 153 0.0 0.0 0.00 0.00 0.00 87 1009.1
20260905054818 63 153 0.0 0.0 0.00 0.00 0.00 87 1009.1
20260905054250 63 153 0.0 0.0 0.00 0.00 0.00 87 1009.1
20260905053759 63 153 0.0 0.0 0.00 0.00 0.00 87 1009.4
20260905053304 63 153 0.0 0.0 0.00 0.00 0.00 87 1009.4
20260905052752 63 153 0.0 0.0 0.00 0.00 0.00 87 1009.4
20260905052321 63 153 0.0 0.0 0.00 0.00 0.00 87 1009.4
20260905051805 63 153 0.0 0.0 0.00 0.00 0.00 87 1009.4
20260905051315 64 153 0.0 0.0 0.00 0.00 0.00 87 1009.4
20260905050802 64 153 0.0 0.0 0.00 0.00 0.00 87 1009.4
20260905050307 64 153 0.0 0.0 0.00 0.00 0.00 87 1009.4
20260905045754 64 153 0.0 0.0 0.00 0.00 0.00 86 1009.4
20260905045257 64 153 0.0 0.0 0.00 0.00 0.00 86 1009.4
20260905044805 64 153 0.0 0.0 0.00 0.00 0.00 86 1009.4
20260905044330 64 153 0.0 0.0 0.00 0.00 0.00 87 1009.4
20260905043756 64 153 0.0 0.0 0.00 0.00 0.00 87 1009.4
20260905043304 64 153 0.0 0.0 0.00 0.00 0.00 86 1009.4
20260905042829 64 153 0.0 0.0 0.00 0.00 0.00 86 1009.4
20260905042256 65 153 0.0 0.0 0.00 0.00 0.00 86 1009.2
20260905041801 65 153 0.0 0.0 0.00 0.00 0.00 86 1009.2
20260905041251 65 153 0.0 0.0 0.00 0.00 0.00 86 1009.2
20260905040756 65 153 0.0 0.0 0.00 0.00 0.00 86 1009.2
20260905040305 65 153 0.0 0.0 0.00 0.00 0.00 86 1009.2
20260905035754 65 153 0.0 0.0 0.00 0.00 0.00 85 1009.2
20260905035323 65 153 0.0 0.0 0.00 0.00 0.00 85 1009.4
20260905034751 65 153 0.0 0.0 0.00 0.00 0.00 84 1009.4
20260905034258 66 153 0.0 0.0 0.00 0.00 0.00 84 1009.4
20260905033801 66 153 0.0 0.0 0.00 0.00 0.00 84 1009.4
20260905033326 66 153 0.0 0.0 0.00 0.00 0.00 84 1009.4
20260905032752 66 153 0.0 0.0 0.00 0.00 0.00 83 1009.4
20260905032257 66 153 0.0 0.0 0.00 0.00 0.00 82 1009.4
20260905031805 66 153 0.0 0.0 0.00 0.00 0.00 82 1009.4
20260905031249 67 153 0.0 0.0 0.00 0.00 0.00 82 1009.4
20260905030756 67 153 0.0 0.0 0.00 0.00 0.00 81 1009.3
20260905030300 67 153 0.0 0.0 0.00 0.00 0.00 80 1009.3
20260905025802 67 153 0.0 0.0 0.00 0.00 0.00 80 1009.3
20260905025313 67 153 0.0 0.0 0.00 0.00 0.00 80 1009.2
20260905024757 68 153 0.0 0.0 0.00 0.00 0.00 80 1009.2
20260905024304 68 153 0.0 0.0 0.00 0.00 0.00 80 1009.2
20260905023749 68 153 0.0 0.0 0.00 0.00 0.00 80 1009.4
20260905023256 68 153 0.0 0.0 0.00 0.00 0.00 80 1009.4
20260905022803 68 153 0.0 0.0 0.00 0.00 0.00 80 1009.4
20260905022250 68 153 0.0 0.0 0.00 0.00 0.00 79 1009.5
20260905021758 68 153 0.0 0.0 0.00 0.00 0.00 79 1009.5
20260905021246 69 153 0.0 0.0 0.00 0.00 0.00 79 1009.5
20260905020755 69 153 0.0 0.0 0.00 0.00 0.00 79 1009.7
20260905020301 69 153 0.0 0.0 0.00 0.00 0.00 79 1009.7
20260905015806 69 153 0.0 1.0 0.00 0.00 0.00 78 1009.7
20260905015251 69 153 0.0 1.0 0.00 0.00 0.00 78 1009.7
20260905014756 69 153 0.0 0.0 0.00 0.00 0.00 77 1009.7
20260905014300 70 153 0.0 0.0 0.00 0.00 0.00 76 1009.7
20260905013803 70 153 0.0 0.0 0.00 0.00 0.00 76 1009.6
20260905013251 70 153 0.0 0.0 0.00 0.00 0.00 76 1009.6
20260905012803 70 153 0.0 0.0 0.00 0.00 0.00 75 1009.6
20260905012256 70 153 0.0 0.0 0.00 0.00 0.00 75 1009.5
20260905011800 70 153 0.0 0.0 0.00 0.00 0.00 75 1009.5
20260905011305 70 153 0.0 0.0 0.00 0.00 0.00 73 1009.5
20260905010755 71 153 0.0 0.0 0.00 0.00 0.00 73 1009.5
20260905010302 71 153 0.0 0.0 0.00 0.00 0.00 73 1009.5
20260905005810 71 153 0.0 0.0 0.00 0.00 0.00 71 1009.5
20260905005254 71 153 0.0 0.0 0.00 0.00 0.00 71 1009.4
20260905004759 71 153 0.0 0.0 0.00 0.00 0.00 72 1009.4
20260905004328 71 153 0.0 0.0 0.00 0.00 0.00 70 1009.4
20260905003813 72 153 0.0 0.0 0.00 0.00 0.00 70 1009.2
20260905003257 72 153 0.0 0.0 0.00 0.00 0.00 69 1009.2
20260905002802 72 153 0.0 0.0 0.00 0.00 0.00 69 1009.2
20260905002255 72 153 0.0 0.0 0.00 0.00 0.00 69 1009.0
20260905001818 72 153 0.0 0.0 0.00 0.00 0.00 68 1009.0
20260905001301 73 153 0.0 0.0 0.00 0.00 0.00 67 1009.0
20260905000749 73 153 0.0 0.0 0.00 0.00 0.00 67 1008.9
20260905000313 73 153 0.0 0.0 0.00 0.00 0.00 67 1008.9
20260904235754 73 153 0.0 0.0 0.00 0.00 0.00 67 1008.9
20260904235306 74 153 0.0 0.0 0.00 0.00 0.00 66 1008.9
20260904234829 74 153 0.0 0.0 0.00 0.00 0.00 66 1008.9
20260904234252 74 153 0.0 0.0 0.00 0.00 0.00 65 1008.9
20260904233804 74 153 0.0 0.0 0.00 0.00 0.00 64 1008.9
20260904233310 75 153 0.0 0.0 0.00 0.00 0.00 64 1008.9
20260904232753 75 153 0.0 0.0 0.00 0.00 0.00 64 1008.9
20260904232257 75 153 0.0 0.0 0.00 0.00 0.00 63 1008.7
20260904231759 75 153 0.0 0.0 0.00 0.00 0.00 62 1008.7
20260904231300 76 153 0.0 0.0 0.00 0.00 0.00 61 1008.7
20260904230746 76 153 0.0 0.0 0.00 0.00 0.00 61 1008.5
20260904230252 76 153 0.0 0.0 0.00 0.00 0.00 60 1008.5
20260904225802 76 153 0.0 0.0 0.00 0.00 0.00 60 1008.5
20260904225326 77 153 0.0 0.0 0.00 0.00 0.00 59 1008.5
20260904224749 77 153 0.0 0.0 0.00 0.00 0.00 58 1008.5
20260904224253 77 153 0.0 0.0 0.00 0.00 0.00 58 1008.5
20260904223802 77 153 0.0 0.0 0.00 0.00 0.00 57 1008.4
20260904223255 77 153 0.0 0.0 0.00 0.00 0.00 56 1008.4
20260904222801 77 153 0.0 0.0 0.00 0.00 0.00 56 1008.4
20260904222250 78 153 0.0 0.0 0.00 0.00 0.00 55 1008.4
20260904221818 78 153 0.0 0.0 0.00 0.00 0.00 55 1008.4
20260904221305 78 153 0.0 2.0 0.00 0.00 0.00 54 1008.4
20260904220750 78 153 0.0 2.0 0.00 0.00 0.00 53 1008.4
20260904220255 78 42 0.0 0.0 0.00 0.00 0.00 53 1008.4
20260904215757 78 42 0.0 1.0 0.00 0.00 0.00 53 1008.4
20260904215258 79 42 0.0 1.0 0.00 0.00 0.00 53 1008.4
20260904214749 79 42 0.0 1.0 0.00 0.00 0.00 52 1008.4
20260904214255 79 42 0.0 1.0 0.00 0.00 0.00 52 1008.4
20260904213758 79 42 0.0 1.0 0.00 0.00 0.00 51 1008.4
20260904213302 79 44 0.0 1.0 0.00 0.00 0.00 52 1008.4
20260904212747 80 44 0.0 1.0 0.00 0.00 0.00 52 1008.4
20260904212258 80 44 0.0 0.0 0.00 0.00 0.00 52 1008.5
20260904211808 80 44 0.0 0.0 0.00 0.00 0.00 52 1008.5
20260904211257 81 44 0.0 0.0 0.00 0.00 0.00 50 1008.5
20260904210808 81 44 0.0 0.0 0.00 0.00 0.00 48 1008.4
20260904210258 81 44 0.0 1.0 0.00 0.00 0.00 47 1008.4
20260904205804 81 44 0.0 1.0 0.00 0.00 0.00 47 1008.4
20260904205251 82 48 0.0 1.0 0.00 0.00 0.00 48 1008.4
20260904204756 82 48 0.0 1.0 0.00 0.00 0.00 47 1008.4
20260904204304 82 34 0.0 2.0 0.00 0.00 0.00 48 1008.4
20260904203751 83 55 0.0 2.0 0.00 0.00 0.00 47 1008.3
20260904203303 83 55 0.0 0.0 0.00 0.00 0.00 48 1008.3
20260904202749 84 55 0.0 0.0 0.00 0.00 0.00 46 1008.3
20260904202251 84 55 0.0 0.0 0.00 0.00 0.00 46 1008.2
20260904201749 85 55 0.0 1.0 0.00 0.00 0.00 44 1008.2
20260904201254 85 84 0.0 1.0 0.00 0.00 0.00 46 1008.2
20260904200758 86 134 0.0 1.0 0.00 0.00 0.00 44 1008.4
20260904200325 86 135 0.0 3.0 0.00 0.00 0.00 44 1008.4
20260904195749 87 192 0.0 3.0 0.00 0.00 0.00 44 1008.4
20260904195255 87 325 0.0 2.0 0.00 0.00 0.00 42 1008.4
20260904194804 87 312 0.0 4.0 0.00 0.00 0.00 43 1008.4
20260904194317 87 225 1.0 3.0 0.00 0.00 0.00 42 1008.4
20260904193800 87 263 0.0 5.0 0.00 0.00 0.00 43 1008.4
20260904193308 87 263 1.0 5.0 0.00 0.00 0.00 42 1008.4
20260904192757 87 287 0.0 2.0 0.00 0.00 0.00 47 1008.4
20260904192306 86 288 0.0 2.0 0.00 0.00 0.00 43 1008.4
20260904191750 86 254 0.0 3.0 0.00 0.00 0.00 47 1008.4
20260904191254 86 269 0.0 4.0 0.00 0.00 0.00 45 1008.4
20260904190800 85 323 0.0 4.0 0.00 0.00 0.00 43 1008.5